Cloud_Cover
0 0 0 5 66 94 61 5 4 8 3 5 6 97 43 19 53 80 100 75 96 100 100 100 100 100 100 100 100 100 100 95 95 89 30 11 88 32 100 100 98 100 84 100 88 100 79 55 72
0 0 0 5 100 68 5 4 0 0 0 0 16 10 89 94 73 100 86 100 47 79 61 100 100 100 81 100 100 100 100 100 100 92 55 97 92 57 100 63 100 100 88 96 100 95 38 5 45
0 0 1 99 81 77 5 1 4 0 2 2 0 0 9 77 100 99 95 100 97 91 95 100 51 100 100 100 100 30 98 100 100 99 100 100 100 100 95 94 100 100 100 100 90 34 96 5 15
0 13 2 79 12 22 4 5 5 0 1 2 0 11 37 94 97 98 100 71 100 99 99 98 100 100 100 100 100 100 87 100 100 100 100 100 100 100 77 58 95 90 94 100 100 100 8 5 7
76 12 100 89 77 12 5 2 0 0 0 0 0 35 64 100 98 100 100 84 98 85 100 86 100 100 100 100 100 100 100 92 100 100 100 100 100 100 100 99 15 56 100 100 90 45 66 66 100
6 69 82 100 65 85 88 58 3 0 0 0 0 11 87 100 70 100 78 100 79 81 98 100 100 100 100 100 100 100 100 98 99 100 100 100 100 100 100 97 95 100 100 100 100 94 100 100 84
100 98 96 100 60 75 76 62 5 0 0 0 0 0 88 100 100 99 73 31 75 93 100 100 100 100 100 100 100 100 100 100 100 100 100 100 100 100 100 100 100 100 100 100 100 55 92 100 73
10 100 76 100 52 91 86 10 5 0 0 0 0 0 79 98 100 74 63 14 98 100 100 100 100 100 100 100 100 100 100 100 100 100 100 100 100 100 100 100 100 100 100 100 100 100 87 100 100
7 89 5 23 97 84 99 4 0 0 0 0 0 0 16 97 92 67 98 74 22 30 38 100 100 100 100 100 100 100 100 100 100 100 98 100 100 100 100 100 100 100 100 100 100 99 100 100 100
100 14 1 2 5 63 34 17 4 0 0 0 0 0 1 92 75 71 99 64 56 42 18 87 100 100 100 100 100 100 100 100 100 100 100 100 100 100 100 100 100 100 100 100 100 100 100 100 100
12 5 5 0 1 79 21 5 100 90 1 0 0 0 0 15 93 54 100 100 83 88 39 74 87 100 100 100 100 100 100 100 100 100 100 100 100 100 100 100 100 100 100 100 100 100 100 100 100
69 0 0 0 0 17 99 70 9 13 0 0 0 0 0 0 75 69 68 100 62 53 90 69 96 54 99 100 100 100 100 100 100 100 100 100 100 100 100 100 100 100 100 100 100 100 100 100 100
4 1 0 0 0 5 3 60 3 0 0 0 0 0 0 0 1 72 59 100 90 74 52 52 33 96 99 71 100 100 100 100 100 100 82 100 100 100 100 100 100 100 100 100 100 100 100 100 100
0 0 0 0 0 3 4 5 24 0 0 0 0 0 0 0 0 0 10 51 54 40 78 2 7 21 42 15 97 62 100 100 100 99 100 100 100 100 100 94 98 94 100 100 100 100 100 100 100
0 0 5 0 0 1 12 24 53 0 0 0 0 0 0 0 0 0 0 0 5 5 9 0 0 5 5 5 6 6 21 14 49 34 51 100 100 100 100 100 100 84 100 100 100 100 100 100 100
0 4 14 0 0 0 83 76 0 0 0 0 0 0 0 0 0 0 0 0 0 0 0 0 0 0 0 2 10 7 18 22 92 28 35 45 100 100 100 100 100 100 100 100 100 100 99 94 67
0 99 48 0 1 0 50 41 0 0 0 0 0 0 0 0 0 0 0 0 0 0 0 0 0 0 0 0 13 26 10 4 40 56 64 21 14 31 100 100 100 100 100 100 100 100 100 100 100
5 97 17 4 0 2 54 27 0 1 0 0 0 0 0 0 0 0 0 0 0 0 0 4 5 2 0 1 2 18 39 28 26 16 3 5 5 1 2 12 91 100 100 100 100 100 100 100 100
1 5 5 5 0 2 66 5 0 0 75 0 0 0 0 0 0 0 0 0 0 0 0 0 5 5 5 2 0 0 19 94 100 100 57 1 0 4 7 11 5 18 13 94 100 100 100 100 100
0 1 5 0 0 1 7 5 5 0 17 8 0 0 0 0 0 0 0 0 0 0 0 0 0 3 38 43 8 20 64 80 100 96 99 40 29 47 99 87 89 42 34 72 42 16 77 74 91
0 5 15 2 0 0 8 4 2 0 2 17 0 0 0 0 0 0 0 0 0 0 0 0 0 0 1 26 26 7 5 5 5 34 79 93 88 22 5 57 16 27 100 45 42 29 21 23 58
5 1 1 0 0 15 0 100 9 4 0 0 0 0 0 0 0 0 0 0 0 0 0 0 0 0 0 0 1 1 15 59 59 39 62 14 5 5 4 43 95 41 100 100 100 100 97 100 38
3 5 5 0 0 15 3 17 100 97 8 5 1 0 0 0 0 0 0 0 0 0 0 0 0 0 0 0 0 0 1 0 0 0 2 0 0 0 0 2 0 5 95 39 7 67 100 100 100
0 4 19 5 2 5 5 0 82 90 65 5 23 4 0 0 0 0 0 0 0 0 0 0 0 0 2 0 0 0 0 0 0 0 0 8 2 0 100 7 0 0 0 0 0 5 54 80 78
0 0 5 6 5 6 5 3 2 25 27 1 45 99 4 0 0 0 0 0 0 0 0 0 0 0 0 0 0 0 0 0 0 0 0 0 0 9 0 0 0 0 0 0 0 0 2 4 3
0 0 39 82 66 94 5 0 0 0 0 0 0 15 60 4 11 0 0 0 0 0 0 0 0 0 0 0 0 0 0 0 0 0 0 0 0 0 0 0 0 0 0 0 0 0 0 0 0
0 0 4 5 5 14 6 4 5 0 0 0 0 0 67 26 50 5 7 0 0 0 0 0 0 0 0 0 0 0 0 0 0 0 0 0 0 0 0 0 0 0 0 0 0 0 0 0 0
0 0 0 2 35 10 56 5 5 2 1 1 0 0 0 86 18 77 20 58 0 0 0 1 0 0 0 0 0 0 0 0 0 0 0 0 0 0 0 0 0 0 0 0 0 0 0 0 0
0 0 0 27 32 70 63 83 72 5 2 5 1 1 0 1 0 83 78 100 7 0 0 5 0 0 0 0 0 7 7 5 6 3 0 0 0 0 0 0 0 0 0 0 0 0 0 0 0
0 0 0 0 5 39 58 93 58 5 0 0 5 0 0 4 2 100 100 100 4 0 6 0 1 28 31 32 34 11 0 0 2 5 3 0 0 0 0 0 0 0 0 0 0 0 0 0 0